• In Deutschland
  • Länderverzeichnis
  • Für 7 Tage
  • Wassertemperatur
  • Satellitenkarten
  • Wetterkarte
  • Widgets
  • user-avatar
    Anmelden

    Stündliche Wetter Hamhŭng

    Heute, 26 September, Dienstag

    Zeit Temperatur Niederschläge Wind Luftdruck Luftfeuchtigkeit
    00:00 +16°C° 0 mm 1 m/S 759 mmHg 91%
    01:00 +16°C° 0 mm 1 m/S 759 mmHg 87%
    02:00 +16°C° 0 mm 1 m/S 759 mmHg 83%
    03:00 +16°C° 0 mm 1 m/S 759 mmHg 77%
    04:00 +16°C° 0 mm 1 m/S 759 mmHg 74%
    05:00 +16°C° 0 mm 1 m/S 759 mmHg 71%
    06:00 +16°C° 0 mm 1 m/S 759 mmHg 68%
    07:00 +20°C° 0 mm 1 m/S 758 mmHg 63%
    08:00 +22°C° 0 mm 1 m/S 758 mmHg 58%
    09:00 +25°C° 0 mm 1 m/S 758 mmHg 54%
    10:00 +26°C° 0 mm 1 m/S 758 mmHg 51%
    11:00 +28°C° 0 mm 2 m/S 757 mmHg 49%
    12:00 +29°C° 0 mm 2 m/S 757 mmHg 46%
    13:00 +29°C° 0 mm 2 m/S 757 mmHg 47%
    14:00 +29°C° 0 mm 2 m/S 756 mmHg 48%
    15:00 +30°C° 0 mm 3 m/S 756 mmHg 48%
    16:00 +28°C° 0 mm 2 m/S 756 mmHg 57%
    17:00 +26°C° 0 mm 2 m/S 756 mmHg 67%
    18:00 +24°C° 0 mm 2 m/S 755 mmHg 76%
    19:00 +23°C° 0 mm 1 m/S 756 mmHg 77%
    20:00 +22°C° 0 mm 1 m/S 756 mmHg 78%
    21:00 +21°C° 0 mm 1 m/S 756 mmHg 80%
    22:00 +21°C° 0 mm 1 m/S 756 mmHg 79%
    23:00 +21°C° 0 mm 1 m/S 756 mmHg 79%

    Morgen, 27 September, Mittwoch

    Zeit Temperatur Niederschläge Wind Luftdruck Luftfeuchtigkeit
    00:00 +20°C° 0 mm 2 m/S 756 mmHg 79%
    01:00 +20°C° 0 mm 2 m/S 756 mmHg 80%
    02:00 +21°C° 0 mm 1 m/S 755 mmHg 81%
    03:00 +21°C° 0 mm 1 m/S 755 mmHg 82%
    04:00 +20°C° 0 mm 2 m/S 755 mmHg 82%
    05:00 +19°C° 0 mm 2 m/S 755 mmHg 82%
    06:00 +19°C° 0 mm 3 m/S 755 mmHg 82%
    07:00 +20°C° 0,3 mm 4 m/S 755 mmHg 84%
    08:00 +20°C° 0,3 mm 4 m/S 756 mmHg 85%
    09:00 +20°C° 0,3 mm 5 m/S 756 mmHg 87%
    10:00 +20°C° 0,2 mm 5 m/S 755 mmHg 87%
    11:00 +19°C° 0,2 mm 5 m/S 755 mmHg 88%
    12:00 +19°C° 0,2 mm 5 m/S 755 mmHg 89%
    13:00 +19°C° 0,1 mm 4 m/S 755 mmHg 87%
    14:00 +19°C° 0,1 mm 4 m/S 754 mmHg 85%
    15:00 +19°C° 0,1 mm 4 m/S 754 mmHg 84%
    16:00 +19°C° 0 mm 4 m/S 754 mmHg 86%
    17:00 +18°C° 0 mm 3 m/S 754 mmHg 88%
    18:00 +17°C° 0 mm 3 m/S 754 mmHg 90%
    19:00 +17°C° 0 mm 2 m/S 754 mmHg 90%
    20:00 +17°C° 0 mm 2 m/S 755 mmHg 90%
    21:00 +17°C° 0 mm 2 m/S 755 mmHg 91%
    22:00 +16°C° 0 mm 1 m/S 755 mmHg 91%
    23:00 +16°C° 0 mm 1 m/S 755 mmHg 92%

    übermorgen, 28 September, Donnerstag

    Zeit Temperatur Niederschläge Wind Luftdruck Luftfeuchtigkeit
    00:00 +16°C° 0 mm 1 m/S 755 mmHg 92%
    01:00 +16°C° 0 mm 1 m/S 755 mmHg 93%
    02:00 +15°C° 0 mm 1 m/S 755 mmHg 93%
    03:00 +15°C° 0 mm 1 m/S 754 mmHg 93%
    04:00 +14°C° 0,2 mm 1 m/S 755 mmHg 92%
    05:00 +13°C° 0,2 mm 1 m/S 755 mmHg 92%
    06:00 +13°C° 0,2 mm 2 m/S 755 mmHg 91%
    07:00 +14°C° 0 mm 2 m/S 755 mmHg 80%
    08:00 +15°C° 0 mm 2 m/S 755 mmHg 70%
    09:00 +17°C° 0 mm 3 m/S 755 mmHg 59%
    10:00 +18°C° 0 mm 3 m/S 755 mmHg 49%
    11:00 +19°C° 0 mm 4 m/S 754 mmHg 39%
    12:00 +20°C° 0 mm 5 m/S 754 mmHg 29%
    13:00 +20°C° 0 mm 6 m/S 754 mmHg 29%
    14:00 +20°C° 0 mm 7 m/S 753 mmHg 30%
    15:00 +20°C° 0 mm 7 m/S 753 mmHg 31%
    16:00 +17°C° 0 mm 7 m/S 753 mmHg 35%
    17:00 +15°C° 0 mm 6 m/S 753 mmHg 40%
    18:00 +14°C° 0 mm 6 m/S 754 mmHg 44%
    19:00 +12°C° 0 mm 5 m/S 755 mmHg 46%
    20:00 +10°C° 0 mm 5 m/S 755 mmHg 49%
    21:00 +8°C° 0 mm 5 m/S 756 mmHg 51%
    22:00 +8°C° 0 mm 4 m/S 757 mmHg 53%
    23:00 +8°C° 0 mm 4 m/S 757 mmHg 56%

    29 September, Freitag

    Zeit Temperatur Niederschläge Wind Luftdruck Luftfeuchtigkeit
    00:00 +7°C° 0 mm 4 m/S 757 mmHg 58%
    01:00 +7°C° 0 mm 4 m/S 757 mmHg 57%
    02:00 +7°C° 0 mm 4 m/S 757 mmHg 55%
    03:00 +7°C° 0 mm 5 m/S 757 mmHg 54%
    04:00 +7°C° 0 mm 5 m/S 757 mmHg 52%
    05:00 +7°C° 0 mm 5 m/S 757 mmHg 50%
    06:00 +7°C° 0 mm 5 m/S 757 mmHg 48%
    07:00 +9°C° 0 mm 6 m/S 757 mmHg 42%
    08:00 +11°C° 0 mm 7 m/S 757 mmHg 37%
    09:00 +13°C° 0 mm 8 m/S 757 mmHg 31%
    10:00 +15°C° 0 mm 9 m/S 757 mmHg 30%
    11:00 +17°C° 0 mm 9 m/S 757 mmHg 28%
    12:00 +18°C° 0 mm 10 m/S 757 mmHg 26%
    13:00 +18°C° 0 mm 10 m/S 756 mmHg 28%
    14:00 +18°C° 0 mm 10 m/S 756 mmHg 30%
    15:00 +18°C° 0 mm 10 m/S 756 mmHg 31%
    16:00 +17°C° 0 mm 9 m/S 756 mmHg 37%
    17:00 +16°C° 0 mm 8 m/S 757 mmHg 43%
    18:00 +14°C° 0 mm 7 m/S 757 mmHg 49%
    19:00 +13°C° 0 mm 6 m/S 757 mmHg 53%
    20:00 +12°C° 0 mm 5 m/S 758 mmHg 56%
    21:00 +11°C° 0 mm 4 m/S 759 mmHg 59%
    22:00 +10°C° 0 mm 4 m/S 759 mmHg 61%
    23:00 +10°C° 0 mm 4 m/S 759 mmHg 63%

    30 September, Samstag

    Zeit Temperatur Niederschläge Wind Luftdruck Luftfeuchtigkeit
    00:00 +10°C° 0 mm 3 m/S 759 mmHg 65%
    01:00 +10°C° 0 mm 3 m/S 759 mmHg 64%
    02:00 +9°C° 0 mm 3 m/S 759 mmHg 63%
    03:00 +9°C° 0 mm 3 m/S 759 mmHg 63%
    04:00 +9°C° 0 mm 3 m/S 760 mmHg 61%
    05:00 +9°C° 0 mm 3 m/S 760 mmHg 60%
    06:00 +9°C° 0 mm 3 m/S 760 mmHg 59%
    07:00 +12°C° 0 mm 3 m/S 761 mmHg 51%
    08:00 +14°C° 0 mm 3 m/S 761 mmHg 44%
    09:00 +18°C° 0 mm 4 m/S 761 mmHg 36%
    10:00 +19°C° 0 mm 4 m/S 761 mmHg 31%
    11:00 +21°C° 0 mm 4 m/S 760 mmHg 25%
    12:00 +23°C° 0 mm 4 m/S 760 mmHg 20%
    13:00 +23°C° 0 mm 4 m/S 760 mmHg 21%
    14:00 +25°C° 0 mm 5 m/S 760 mmHg 22%
    15:00 +25°C° 0 mm 5 m/S 760 mmHg 23%
    16:00 +22°C° 0 mm 5 m/S 760 mmHg 31%
    17:00 +20°C° 0 mm 4 m/S 760 mmHg 38%
    18:00 +18°C° 0 mm 4 m/S 760 mmHg 46%
    19:00 +15°C° 0 mm 4 m/S 761 mmHg 48%
    20:00 +14°C° 0 mm 4 m/S 761 mmHg 49%
    21:00 +13°C° 0 mm 4 m/S 762 mmHg 51%
    22:00 +13°C° 0 mm 3 m/S 762 mmHg 50%
    23:00 +13°C° 0 mm 3 m/S 761 mmHg 49%

    1 Oktober, Sonntag

    Zeit Temperatur Niederschläge Wind Luftdruck Luftfeuchtigkeit
    00:00 +13°C° 0 mm 3 m/S 761 mmHg 48%
    01:00 +13°C° 0 mm 3 m/S 761 mmHg 48%
    02:00 +13°C° 0 mm 3 m/S 761 mmHg 48%
    03:00 +13°C° 0 mm 3 m/S 761 mmHg 47%
    04:00 +13°C° 0 mm 3 m/S 761 mmHg 56%
    05:00 +14°C° 0 mm 3 m/S 761 mmHg 64%
    06:00 +16°C° 0 mm 2 m/S 761 mmHg 73%
    07:00 +18°C° 0 mm 3 m/S 761 mmHg 72%
    08:00 +20°C° 0 mm 3 m/S 760 mmHg 70%
    09:00 +22°C° 0 mm 3 m/S 760 mmHg 69%
    10:00 +23°C° 0 mm 4 m/S 760 mmHg 63%
    11:00 +25°C° 0 mm 4 m/S 759 mmHg 57%
    12:00 +26°C° 0 mm 4 m/S 758 mmHg 52%
    13:00 +26°C° 0 mm 4 m/S 758 mmHg 51%
    14:00 +26°C° 0 mm 4 m/S 758 mmHg 51%
    15:00 +27°C° 0 mm 5 m/S 757 mmHg 50%
    16:00 +25°C° 0,2 mm 4 m/S 757 mmHg 61%
    17:00 +21°C° 0,2 mm 4 m/S 757 mmHg 71%
    18:00 +19°C° 0,2 mm 3 m/S 758 mmHg 82%
    19:00 +19°C° 0,4 mm 2 m/S 758 mmHg 84%
    20:00 +18°C° 0,4 mm 2 m/S 758 mmHg 86%
    21:00 +19°C° 0,4 mm 1 m/S 758 mmHg 88%
    22:00 +19°C° 0,4 mm 1 m/S 758 mmHg 89%
    23:00 +19°C° 0,4 mm 1 m/S 758 mmHg 89%
    Mehr zeigen